Tracking 19854 objects as of 23-Sep-2019
HD Live streaming from Space Station
objects crossing your sky now

FENGYUN 1C DEB

Track FENGYUN 1C DEB now!
10-day predictions


NORAD ID: 37057
Int'l Code: 1999-025EER
Perigee: 711.5 km
Apogee: 1,137.1 km
Inclination: 99.1 °
Period: 103.4 minutes
Semi major axis: 7295 km
RCS: 0.0122 m2 (small)
Launch date: May 10, 1999
Source: People's Republic of China (PRC)
Launch site: Taiyaun Space Center, China (TSC)

Note: This is SATELLITE DEBRIS
aabbcc
Your satellite tracking list
Your tracking list is empty




NASA's NSSDC Master Catalog

Two Line Element Set (TLE):
1 37057U 99025EER 19262.87754952  .00000172  00000-0  11793-3 0  9998
2 37057  99.1491 294.8803 0291714 251.6484 105.2748 13.93271877529107
Source of the keplerian elements: AFSPC